カタログに戻る

STARLINK-34939

運用中通信SSO
NORAD 65183·PAYLOAD·🇺🇸 United States

打ち上げ Aug 14, 2025 から Vandenberg Space Force Base

Loading…

次のパス (今後24時間)

TLE

最新Source: CelesTrak SupGP

元期: Sep 15, 2026, 03:00 UTC

1 65183C 25175K   26258.12548611  .00034149  00000+0  10583-2 0  2581
2 65183  97.2846 127.2478 0001821  96.9571 264.9376 15.33474278    13

AllMySatでSTARLINK-34939をリアルタイム追跡

Download on the App Store